Durango, CO

8:04 PM MDT on March 22, 2017 (GMT -0600)
Durango-La Plata County

Weather History for KDRO - February, 2013

Change the Weather History Date:

Tuesday, February 26, 2013

  Actual Average Record
Temperature  
Mean Temperature 22 °F 32 °F  
Max Temperature 33 °F 46 °F 71 °F (1986)
Min Temperature 10 °F 18 °F 6 °F (1998)
Degree Days  
Heating Degree Days 43 33  
Month to date heating degree days 1026 956  
Since 1 July heating degree days 5263 5110  
Cooling Degree Days 0 0  
Month to date cooling degree days 0 0  
Year to date cooling degree days 0 0  
Moisture  
Dew Point 9 °F    
Average Humidity 60    
Maximum Humidity 88    
Minimum Humidity 32    
Precipitation  
Precipitation 0.00 in 0.04 in 0.65 in (1987)
Month to date precipitation 0.47 1.09  
Year to date precipitation 2.21 2.21  
Sea Level Pressure  
Sea Level Pressure 30.01 in    
Wind  
Wind Speed 11 mph (NW)    
Max Wind Speed 36 mph    
Max Gust Speed 43 mph    
Visibility 10 miles    
Events      
T = Trace of Precipitation, MM = Missing Value Source: NWS Daily Summary

Daily Weather History Graph

Daily Weather History Graph

Search for Another Location

Airport or City:

Trip Planner

Search our weather history database for the weather conditions in past years. The results will help you decide how hot, cold, wet, or windy it might be!

Date:

Astronomy

Feb. 26, 2013 Rise Set
Actual Time 6:45 AM MST 6:02 PM MST
Civil Twilight 6:19 AM MST 6:28 PM MST
Nautical Twilight 5:49 AM MST 6:58 PM MST
Astronomical Twilight 5:19 AM MST 7:29 PM MST
Moon 7:19 PM MST (2/26) 6:52 AM MST (2/26)
Length of Visible Light 12h 09m
Length of Day
11h 16m
Full, 99% of the Moon is Illuminated
Feb 26
Full
Mar 4
Last Quarter
Mar 11
New
Mar 19
First Quarter
Mar 27
Full

Hourly Weather History & Observations

Time (MST) Temp. Windchill Dew Point Humidity Pressure Visibility Wind Dir Wind Speed Gust Speed Precip Events Conditions
12:53 AM 17.1 °F 10.0 °F 12.0 °F 81% 30.01 in 10.0 mi ENE 4.6 mph - N/A   Clear
1:53 AM 17.1 °F 11.7 °F 10.0 °F 74% 29.99 in 10.0 mi NNE 3.5 mph - N/A   Clear
2:53 AM 14.0 °F 6.5 °F 10.0 °F 84% 29.97 in 10.0 mi East 4.6 mph - N/A   Clear
3:53 AM 12.9 °F 3.8 °F 9.0 °F 84% 29.96 in 10.0 mi ENE 5.8 mph - N/A   Clear
4:53 AM 12.9 °F 2.6 °F 8.1 °F 81% 29.95 in 10.0 mi East 6.9 mph - N/A   Clear
5:53 AM 12.0 °F 5.9 °F 8.1 °F 84% 29.97 in 10.0 mi NE 3.5 mph - N/A   Clear
6:53 AM 12.0 °F - 7.0 °F 80% 29.98 in 10.0 mi Calm Calm - N/A   Clear
7:53 AM 15.1 °F - 8.1 °F 74% 29.98 in 10.0 mi Calm Calm - N/A   Clear
8:53 AM 21.0 °F - 12.0 °F 68% 29.96 in 10.0 mi Calm Calm - N/A   Partly Cloudy
9:53 AM 28.0 °F 15.3 °F 15.1 °F 58% 29.92 in 10.0 mi WSW 18.4 mph 25.3 mph N/A   Clear
10:53 AM 30.9 °F 17.2 °F 10.9 °F 43% 29.91 in 10.0 mi West 25.3 mph 34.5 mph N/A   Clear
11:53 AM 32.0 °F 18.6 °F 9.0 °F 38% 29.92 in 10.0 mi West 25.3 mph 36.8 mph N/A   Clear
12:53 PM 33.1 °F 19.8 °F 10.0 °F 38% 29.91 in 10.0 mi West 26.5 mph 35.7 mph N/A   Mostly Cloudy
1:53 PM 30.0 °F 16.3 °F 9.0 °F 41% 29.93 in 10.0 mi WNW 24.2 mph 33.4 mph N/A   Overcast
2:53 PM 33.1 °F 19.3 °F 7.0 °F 34% 29.95 in 10.0 mi WNW 28.8 mph 38.0 mph N/A   Mostly Cloudy
3:53 PM 30.9 °F 18.1 °F 14.0 °F 50% 29.99 in 10.0 mi West 21.9 mph 32.2 mph N/A   Scattered Clouds
4:53 PM 30.0 °F 17.9 °F 12.0 °F 47% 30.01 in 10.0 mi West 18.4 mph 26.5 mph N/A   Clear
5:53 PM 28.9 °F 21.1 °F 7.0 °F 40% 30.05 in 10.0 mi WNW 8.1 mph 18.4 mph N/A   Clear
6:53 PM 27.0 °F 18.7 °F 6.1 °F 41% 30.10 in 10.0 mi NW 8.1 mph - N/A   Clear
7:53 PM 25.0 °F 14.8 °F 7.0 °F 46% 30.13 in 10.0 mi NW 10.4 mph - N/A   Clear
8:53 PM 25.0 °F 19.3 °F 5.0 °F 43% 30.13 in 10.0 mi NNW 4.6 mph - N/A   Clear
9:53 PM 24.1 °F - 1.9 °F 38% 30.12 in 10.0 mi Calm Calm - N/A   Clear
10:53 PM 19.9 °F 14.9 °F 3.9 °F 50% 30.14 in 10.0 mi North 3.5 mph - N/A   Clear
11:53 PM 16.0 °F 10.4 °F 5.0 °F 62% 30.19 in 10.0 mi ESE 3.5 mph - N/A   Clear